RH
29 37 39 46 47 49 50 53 55 54 56 46 40 46 47 45 41 44 45 38 34 28 24 27 24 20 16 15 17 16 13 15 20 31 38 39 40 40 40 40 38 34 27
33 34 43 41 46 51 57 57 54 54 54 48 42 46 45 45 46 48 43 35 22 26 31 25 18 17 18 23 24 26 29 34 37 38 38 36 35 34 33 32 31 30 29
41 40 38 49 63 70 71 72 65 58 51 46 46 47 46 36 51 44 34 26 22 31 32 23 19 22 25 31 33 31 32 34 36 36 36 36 37 38 37 36 34 31 28
43 45 45 56 74 74 74 69 65 61 50 46 48 46 33 39 42 41 37 24 22 28 32 28 24 30 34 37 39 41 40 41 44 45 46 46 46 46 45 43 42 41 39
49 44 40 57 72 73 70 64 53 47 45 48 47 37 31 41 50 48 42 35 19 21 29 30 27 34 37 41 43 43 42 39 37 36 33 34 34 34 35 36 36 37 38
44 41 46 51 59 75 70 54 44 45 50 48 48 49 50 50 50 51 54 52 31 18 25 30 30 35 41 42 40 36 34 33 34 37 40 40 41 41 40 39 40 40 40
36 33 40 43 56 74 73 50 50 54 55 56 53 50 49 46 48 49 49 48 31 17 25 29 29 30 32 36 40 39 40 43 48 48 45 42 41 42 41 38 36 35 34
40 42 29 43 57 74 76 60 60 62 64 67 66 58 50 52 53 51 51 45 22 21 26 27 28 31 36 42 44 46 50 53 50 49 48 45 42 40 39 37 35 34 34
52 51 33 46 59 74 77 77 73 76 77 77 76 66 44 45 52 51 40 21 19 24 26 34 41 41 42 44 53 56 54 55 52 49 46 42 37 30 27 26 28 32 37
61 67 55 52 58 68 75 81 86 84 76 69 57 42 41 47 48 38 23 20 21 31 46 53 54 53 56 58 59 61 60 55 53 47 40 40 44 45 42 38 36 34 33
54 59 50 44 44 59 68 73 65 50 47 42 36 36 41 41 33 24 18 24 23 30 35 38 51 62 64 65 59 53 52 47 40 44 46 45 40 37 35 33 31 29 28
48 42 53 59 45 39 42 44 42 36 28 22 28 29 27 26 21 20 18 21 26 41 45 53 63 65 52 48 50 47 46 49 46 40 37 37 35 34 33 30 29 29 28
56 52 46 47 49 45 37 25 20 21 21 20 18 22 27 21 20 18 18 26 35 53 59 60 48 46 47 44 49 48 42 39 40 39 37 32 21 12 11 9 8 8 9
64 57 48 41 36 30 21 18 23 28 26 23 30 26 22 18 18 30 42 42 47 54 50 48 47 49 51 46 40 40 40 35 24 15 12 10 9 9 7 6 6 7 9
63 58 52 45 39 31 23 21 30 34 37 34 27 24 22 37 54 56 56 58 57 47 36 52 53 46 39 38 40 31 18 12 10 8 7 6 5 5 4 3 3 2 2
64 57 51 44 37 45 51 46 42 45 37 29 27 41 59 60 62 61 58 43 42 53 50 46 42 43 41 28 18 13 9 7 6 6 6 5 3 2 2 3 4 10 27
60 54 53 57 65 63 58 48 49 41 33 37 68 76 69 65 58 40 47 62 58 49 42 44 43 29 20 15 10 8 8 7 5 4 3 3 3 4 4 20 39 51 42
61 60 66 78 81 70 52 60 55 36 68 85 81 72 62 42 51 67 62 53 46 47 45 30 21 15 12 12 10 9 6 3 3 4 5 4 5 35 39 50 56 48 38
72 76 82 92 70 51 81 84 49 89 90 83 67 50 47 68 66 58 49 48 47 32 24 18 14 12 10 8 6 3 3 4 6 6 13 33 44 50 55 54 50 51 58
81 92 100 69 60 87 90 69 97 94 77 57 47 68 73 64 55 52 49 34 25 21 17 13 8 7 6 4 3 4 6 6 23 50 49 44 47 49 61 52 58 60 52
100 92 77 72 87 77 90 99 89 65 50 60 78 72 60 53 51 37 27 23 20 17 11 8 8 5 3 3 6 7 9 38 63 55 51 67 51 60 59 60 61 62 63
79 70 67 70 90 100 100 80 60 50 76 81 70 58 55 42 30 25 23 20 16 9 10 7 3 3 5 7 8 37 51 51 64 86 50 78 54 70 64 65 71 70 58
64 66 64 100 100 98 75 52 67 82 80 64 58 49 35 29 26 23 18 9 10 12 5 3 4 7 10 35 52 54 70 60 70 74 59 74 67 71 73 75 75 62 26
51 86 99 100 93 63 56 77 87 76 61 57 44 33 28 27 22 11 8 13 9 4 4 6 12 34 56 54 49 56 64 66 70 63 51 51 50 60 75 76 73 44 35
98 99 99 80 54 71 87 88 68 62 55 41 32 29 26 18 10 12 10 6 4 5 16 37 54 53 45 36 27 23 26 26 27 26 24 25 21 28 56 75 74 42 42
100 90 56 65 80 94 79 64 62 51 38 30 26 25 15 9 12 9 5 3 6 29 49 54 43 36 34 36 35 33 30 29 27 27 22 19 18 20 58 76 80 46 51
Wind_Speed
26 26 30 33 35 37 38 37 36 34 31 35 34 35 32 31 31 30 29 30 33 35 35 39 38 38 38 34 32 31 32 36 36 36 36 38 39 40 41 42 42 42 43
27 27 29 32 35 36 37 38 38 35 33 36 35 36 35 34 34 33 32 34 34 35 39 39 37 37 35 34 33 35 36 36 37 39 40 41 42 43 44 45 46 46 46
32 30 31 34 36 37 37 37 36 36 36 36 36 37 37 35 33 33 35 35 36 38 39 40 38 36 37 37 38 39 41 42 43 45 46 47 47 48 48 50 51 50 51
34 34 34 36 36 37 37 37 38 37 36 36 36 37 38 33 35 35 37 39 39 40 42 42 40 39 40 41 42 44 46 48 49 51 53 55 56 56 55 56 57 56 55
36 36 37 36 37 37 37 38 38 36 36 35 34 34 34 35 37 38 39 41 43 43 44 43 44 43 44 46 48 50 52 53 54 55 56 57 59 60 59 60 61 62 61
36 39 39 37 38 38 38 39 37 35 34 33 33 35 36 38 40 41 42 44 45 47 47 47 46 47 48 51 53 55 56 57 58 60 60 61 60 61 60 60 62 62 63
38 40 40 38 39 39 39 37 36 36 36 36 36 38 40 43 43 45 46 48 49 49 50 50 50 50 52 55 57 58 59 61 62 63 63 63 62 62 62 62 64 65 67
38 39 39 39 40 40 40 39 40 39 40 41 41 42 43 46 49 50 51 53 53 52 52 53 53 54 57 59 61 62 63 65 66 67 67 66 66 67 68 69 71 72 73
39 38 38 39 40 40 43 43 44 45 45 47 46 46 47 48 50 52 53 54 55 54 54 55 57 60 62 63 65 67 68 69 72 72 72 73 73 74 75 75 76 76 77
39 38 39 40 41 41 44 46 47 48 49 49 48 49 49 50 52 52 53 54 54 54 56 58 61 64 66 68 70 72 73 74 75 76 76 76 76 76 78 80 81 83 84
39 40 39 41 43 44 44 47 49 49 49 49 50 50 50 52 54 54 53 52 54 56 58 60 61 63 67 69 71 72 74 77 78 77 77 78 80 81 81 82 83 85 86
38 39 42 43 44 45 46 48 49 50 50 50 51 51 52 53 55 56 56 55 56 58 63 66 66 66 66 69 74 77 77 77 78 79 79 80 81 83 85 87 90 93 94
38 39 42 44 47 48 49 49 49 48 48 49 50 51 51 53 55 57 58 60 63 64 65 65 66 69 73 75 74 76 77 77 78 80 83 85 85 88 92 96 99 101 102
38 40 42 44 46 46 47 47 46 46 47 48 49 50 52 54 56 58 62 67 68 67 67 69 72 73 75 77 78 79 79 81 83 86 88 93 98 102 106 109 112 115 117
40 41 43 44 44 45 45 44 45 45 47 49 49 51 53 55 58 63 66 68 69 71 70 71 74 77 81 83 83 84 85 89 94 98 102 107 111 115 116 113 108 99 92
41 42 42 42 42 42 43 44 46 48 49 50 51 53 56 59 63 65 67 69 70 72 73 76 79 81 83 85 87 92 96 100 105 111 116 118 114 107 93 79 69 60 55
41 42 42 41 41 43 44 45 47 48 50 51 53 56 59 63 65 67 67 70 73 77 80 77 80 83 87 92 95 101 108 113 116 114 105 91 81 71 59 46 45 43 42
40 41 41 42 44 45 46 46 48 49 50 53 56 60 62 64 65 67 71 74 77 78 80 82 82 87 94 100 105 111 116 109 97 85 73 65 53 42 41 40 42 39 36
39 41 43 44 44 44 44 49 48 50 53 55 59 62 63 65 68 71 74 75 77 81 83 85 90 97 102 108 112 105 91 77 70 61 47 42 44 37 41 39 37 34 36
40 42 43 43 43 43 49 48 50 53 55 58 61 62 65 68 71 72 75 79 81 83 89 94 98 103 109 104 88 76 68 60 44 44 46 41 35 40 40 35 34 35 38
40 42 43 44 43 47 48 50 52 54 57 59 62 65 68 70 71 75 78 81 85 90 95 102 107 105 91 76 69 61 49 39 45 41 36 35 39 39 39 36 34 37 39
42 43 43 42 45 47 51 52 55 57 59 61 64 66 68 72 76 78 82 88 92 98 104 107 98 85 72 62 50 41 41 43 33 36 37 32 39 37 38 34 35 38 38
42 40 40 44 47 49 52 54 55 58 60 63 64 67 72 76 79 83 87 91 99 104 99 91 80 66 51 42 39 41 39 34 35 38 39 31 38 36 37 33 34 34 31
37 38 43 46 48 50 53 54 57 59 61 62 66 71 75 79 82 86 93 100 101 91 81 70 54 44 42 43 42 38 35 32 34 38 42 33 38 34 36 32 31 30 28
37 42 44 46 48 51 53 55 57 59 61 65 70 74 78 81 87 94 100 99 86 70 55 47 45 46 44 44 43 41 38 37 35 34 42 36 38 34 34 31 29 28 25
41 43 44 46 49 52 54 56 57 59 64 68 73 78 80 88 94 99 95 80 62 49 48 49 46 44 43 43 44 44 43 41 41 34 40 35 35 37 24 34 30 27 23
Wind_Direction
278 278 272 270 270 269 269 268 268 270 273 278 285 289 290 282 276 279 283 288 290 292 293 294 293 292 293 292 292 289 284 281 280 278 276 275 273 272 272 271 270 270 270
279 279 277 275 274 272 271 270 270 269 273 278 282 285 287 285 278 281 283 288 290 292 297 296 294 293 291 290 289 288 287 286 284 282 279 277 276 275 273 272 270 269 268
277 279 280 279 276 274 273 272 272 271 272 276 279 284 286 284 278 281 286 289 290 295 300 298 295 291 289 288 287 287 285 284 283 282 281 279 277 275 274 272 271 269 268
277 277 278 277 275 272 272 273 273 272 273 276 281 286 285 281 282 287 291 291 292 294 300 299 293 289 286 285 285 284 283 282 280 279 279 278 277 276 275 274 272 270 268
277 276 275 277 275 272 272 275 276 274 275 278 283 288 283 285 289 291 294 296 294 293 295 295 292 288 285 284 283 282 282 282 281 280 279 279 279 277 276 274 274 273 272
276 275 274 277 276 271 271 275 276 275 279 283 285 287 289 290 293 294 296 298 296 293 294 294 290 286 284 283 282 283 283 284 284 284 284 283 281 279 277 275 274 273 273
276 274 272 274 275 270 269 274 274 276 280 284 289 290 291 292 295 296 297 298 297 293 293 292 289 286 285 283 284 285 285 286 286 286 285 285 283 281 280 278 276 275 274
273 273 269 272 274 269 268 271 272 277 280 284 288 294 292 290 293 296 297 298 296 294 294 292 289 287 285 285 287 287 287 287 287 287 287 285 284 283 281 280 278 277 275
273 272 269 272 274 270 268 271 273 278 282 286 288 289 291 293 293 296 298 297 296 295 294 291 290 289 290 290 290 289 290 290 290 290 289 288 287 285 282 280 278 275 273
271 272 271 272 274 273 270 273 276 280 283 286 287 290 290 292 292 294 295 294 294 293 292 292 293 293 293 292 292 292 293 292 292 292 291 289 288 286 284 282 280 278 276
272 271 273 273 273 274 274 275 278 280 283 286 288 289 291 292 293 294 293 292 292 290 288 288 288 288 288 288 289 289 290 289 289 289 288 288 287 286 284 282 280 278 276
276 275 274 275 275 275 277 279 280 283 285 288 290 292 294 295 295 295 294 292 291 290 292 292 291 289 288 288 290 290 290 289 289 288 287 285 284 282 281 280 278 276 275
276 277 278 277 278 279 280 282 283 285 288 290 292 294 295 295 295 294 294 293 294 295 293 292 291 290 291 291 290 290 290 289 288 286 284 282 281 281 279 277 275 273 272
276 277 278 279 280 281 283 284 286 288 290 292 294 295 295 295 295 295 296 297 297 296 294 294 295 294 293 293 292 291 291 290 289 288 287 284 283 283 282 281 278 275 272
276 277 278 281 283 284 286 288 290 291 292 294 295 295 295 296 298 299 299 298 297 297 297 298 297 297 296 296 296 296 296 295 295 294 292 290 290 289 288 285 282 280 278
277 278 280 282 284 286 289 290 292 294 295 296 297 297 299 300 300 299 299 299 301 301 300 301 300 300 300 300 301 300 299 298 298 296 295 294 293 290 290 287 284 279 275
278 281 283 285 287 288 291 292 293 295 297 298 299 301 301 301 301 302 303 303 303 303 303 303 303 303 303 302 302 301 301 300 299 298 295 294 293 292 290 286 284 283 280
280 283 285 285 287 291 291 293 295 297 299 300 301 302 302 303 304 305 305 306 306 305 305 305 305 305 304 302 301 301 301 300 297 297 296 295 295 293 293 288 288 282 283
283 285 285 288 291 290 292 295 297 299 301 302 302 303 305 306 307 308 308 307 307 306 307 307 307 305 304 303 302 303 300 300 297 297 296 294 295 293 296 296 290 287 286
283 284 287 290 290 294 295 296 299 301 302 303 305 306 307 309 310 309 309 308 308 308 308 307 307 306 305 305 303 302 301 299 297 297 295 295 294 296 297 294 293 297 294
288 288 288 288 290 294 296 298 300 302 303 305 307 309 310 311 310 310 309 309 309 308 307 307 307 308 307 306 304 302 299 297 298 295 292 297 295 294 297 302 303 300 301
284 283 285 290 293 297 298 300 301 304 306 308 310 311 311 312 311 310 311 311 310 308 308 309 310 309 307 305 301 298 297 297 290 294 297 298 296 295 295 300 301 301 300
281 285 289 293 295 297 299 302 304 306 309 311 312 312 312 311 311 312 311 310 310 310 311 311 309 308 308 303 301 304 306 298 294 293 291 293 290 293 293 295 297 299 296
284 290 292 293 296 299 302 304 307 310 311 312 312 311 311 312 312 311 312 311 312 312 312 311 313 313 310 309 306 304 302 296 294 296 290 296 289 289 289 293 297 295 292
288 290 292 296 299 302 304 307 310 311 312 312 311 311 311 313 313 311 313 313 315 313 314 317 316 314 312 310 308 307 305 301 300 301 294 298 292 289 289 293 296 291 288
288 292 297 300 301 305 308 310 311 312 311 311 312 313 314 315 314 314 314 315 314 313 314 314 315 313 311 309 308 307 305 303 300 298 292 294 293 289 286 292 292 289 285